[Iaude] MPEC V133: 2023 VY3 [a=1.49,e=0.55,i=9.9,H=27.5]
    mpec at marsden.cfa.harvard.edu 
    mpec at marsden.cfa.harvard.edu
       
    Thu Nov  9 08:42:16 EST 2023
    
    
  
M.P.E.C. 2023-V133                             Issued 2023 November 9, 13:40 UT
     The Minor Planet Electronic Circulars contain information on unusual
         minor planets, routine data on comets and natural satellites,
         and occasional editorial announcements.  They are published
    on behalf of Division F of the International Astronomical Union by the
          Minor Planet Center, Smithsonian Astrophysical Observatory,
                          Cambridge, MA 02138, U.S.A.
			  
             Prepared using the Tamkin Foundation Computer Network
                              MPC at CFA.HARVARD.EDU
            URL https://www.minorplanetcenter.net/    ISSN 1523-6714
                                    2023 VY3                                    
Observations:
     K23V03Y*1C2023 11 07.32113602 23 37.892+02 35 27.38         20.98GVEV133G96
     K23V03Y 1C2023 11 07.33162102 23 27.834+02 36 03.31         20.86GVEV133G96
     K23V03Y 1C2023 11 07.33685202 23 22.772+02 36 21.85         21.14GVEV133G96
     K23V03Y KC2023 11 07.40190702 22 20.122+02 40 08.62         20.81GVEV133I52
     K23V03Y KC2023 11 07.40444002 22 17.677+02 40 18.19         21.09GVEV133I52
     K23V03Y KC2023 11 07.40697802 22 15.215+02 40 27.34         20.52GVEV133I52
     K23V03Y KC2023 11 07.40951302 22 12.770+02 40 36.16         21.06GVEV133I52
     K23V03Y KC2023 11 08.17461802 08 09.320+03 37 49.60         19.96GVEV133I52
     K23V03Y KC2023 11 08.17765602 08 04.850+03 38 06.50         20.35GVEV133I52
     K23V03Y KC2023 11 08.17919102 08 02.470+03 38 14.70         19.99GVEV133I52
     K23V03Y 1C2023 11 08.89175 01 46 20.89 +05 00 54.0          20.2 VXEV133033
     K23V03Y 1C2023 11 08.89227 01 46 19.67 +05 00 59.1          20.8 VXEV133033
     K23V03Y KC2023 11 09.11216501 37 14.084+05 38 22.42         19.69GVEV133I52
     K23V03Y KC2023 11 09.11278101 37 12.353+05 38 29.22         19.95GVEV133I52
     K23V03Y KC2023 11 09.11340301 37 10.502+05 38 35.59         19.83GVEV133I52
     K23V03Y KC2023 11 09.11402301 37 08.760+05 38 42.22         20.59GVEV133I52
Observer details:
033 Karl Schwarzschild Observatory, Tautenburg.  Observers S. Melnikov, C.
    Hogner, F. Ludwig, M. Hartmann, B. Stecklum.  Measurer B. Stecklum.
    1.34-m f/3 Schmidt + CCD.
G96 Mt. Lemmon Survey.  Observer D. Rankin.  Measurers E. C. Beshore, D. Fay,
    J. B. Fazekas, D. C. Fuls, A. R. Gibbs, A. D. Grauer, H. Groeller, J. K.
    Hogan, R. A. Kowalski, S. M. Larson, G. J. Leonard, D. Rankin, R. L.
    Seaman, F. C. Shelly, K. W. Wierzchos.  1.5-m reflector + 10K CCD.
I52 Steward Observatory, Mt. Lemmon Station.  Observer H. Groeller.  Measurers
    E. C. Beshore, D. Fay, J. B. Fazekas, D. C. Fuls, A. R. Gibbs, A. D.
    Grauer, H. Groeller, J. K. Hogan, R. A. Kowalski, S. M. Larson, G. J.
    Leonard, D. Rankin, R. L. Seaman, F. C. Shelly, K. W. Wierzchos.  1.0-m
    prime focus + CCD.
Orbital elements:
2023 VY3                                                 Earth MOID = 0.0043 AU
Epoch 2023 Sept. 13.0 TT = JDT 2460200.5                Veres                   
M 300.44519              (2000.0)            P               Q                  
n   0.54240013     Peri.   85.88415     -0.65903269     -0.74179711             
a   1.4890965      Node    46.16507     +0.60355223     -0.62009513             
e   0.5466362      Incl.    9.91048     +0.44877681     -0.25538028             
P   1.82           H   27.59          G   0.15           U   8                  
Residuals in seconds of arc
231107 G96  0.7+  0.1+    231107 I52  0.2+  0.1+    231109 I52  0.5-  0.1+
231107 G96  0.2-  0.0     231108 I52  0.4-  0.0     231109 I52  0.3+  0.3+
231107 G96  1.1-  0.5+    231108 I52  0.8+  0.2-    231109 I52  0.4-  0.0
231107 I52  0.1-  0.4-    231108 I52  0.3-  0.6-    231109 I52  0.5+  0.1-
231107 I52  0.1+  0.2+    231108 033  1.1-  0.2-
231107 I52  0.0   0.3+    231108 033  0.3-  0.2+
Ephemeris:
2023 VY3                 a,e,i = 1.49, 0.55, 10                  q = 0.6751
Date    TT    R. A. (2000) Decl.     Delta      r    Elong.  Phase     V
2023 10 10    03 05 51.6 +00 34 15   0.3197  1.2810   147.9    24.5    26.8
...
2023 10 25    03 05 40.8 +00 07 35   0.1625  1.1478   159.0    18.1    24.9
...
2023 11 02    02 55 55.1 +00 31 54   0.08512 1.0746   164.2    14.5    23.2
...
2023 11 08    02 11 53.0 +03 24 50   0.02955 1.0194   164.0    15.5    20.8
2023 11 09    01 41 57.2 +05 22 36   0.02084 1.0102   159.1    20.5    20.2
2023 11 10    00 32 23.8 +09 30 08   0.01302 1.0010   143.8    35.7    19.6
...
2023 11 16    16 00 23.2 +03 57 44   0.04721 0.9463    24.3   154.5    30.2
...
2023 11 24    15 34 27.2 +01 45 45   0.1227  0.8755    22.8   154.1    32.0
...
2023 12 09    15 30 04.9 -01 12 26   0.2790  0.7588    30.7   138.4    30.9
M. P. C. Staff               (C) Copyright 2023 MPC           M.P.E.C. 2023-V133
    
    
More information about the Iaude
mailing list